| time (UTC) | temp F | wind direction | speed MPH | gust MPH | rain 1hr in | rain 24hr in | rain mn in | humidity % | barometer mb |
| 20260504050450 | 61 | 132 | 10.0 | 13.0 | 0.00 | 0.00 | 0.00 | 26 | 1011.2 |
| 20260504045947 | 61 | 145 | 10.0 | 12.0 | 0.00 | 0.00 | 0.00 | 26 | 1011.4 |
| 20260504045443 | 61 | 138 | 12.0 | 14.0 | 0.00 | 0.00 | 0.00 | 26 | 1011.1 |
| 20260504044939 | 61 | 124 | 10.0 | 12.0 | 0.00 | 0.00 | 0.00 | 26 | 1011.5 |
| 20260504044437 | 61 | 129 | 5.0 | 12.0 | 0.00 | 0.00 | 0.00 | 27 | 1011.2 |
| 20260504043934 | 61 | 136 | 8.0 | 13.0 | 0.00 | 0.00 | 0.00 | 26 | 1011.2 |
| 20260504043431 | 61 | 152 | 8.0 | 12.0 | 0.00 | 0.00 | 0.00 | 26 | 1011.2 |
| 20260504042929 | 61 | 126 | 10.0 | 13.0 | 0.00 | 0.00 | 0.00 | 26 | 1011.2 |
| 20260504042425 | 62 | 118 | 7.0 | 12.0 | 0.00 | 0.00 | 0.00 | 26 | 1011.4 |
| 20260504041921 | 62 | 140 | 7.0 | 13.0 | 0.00 | 0.00 | 0.00 | 26 | 1011.4 |
| 20260504041418 | 62 | 138 | 7.0 | 11.0 | 0.00 | 0.00 | 0.00 | 25 | 1011.5 |
| 20260504040914 | 62 | 128 | 9.0 | 11.0 | 0.00 | 0.00 | 0.00 | 26 | 1011.4 |
| 20260504040412 | 62 | 128 | 7.0 | 10.0 | 0.00 | 0.00 | 0.00 | 25 | 1011.7 |
| 20260504035908 | 63 | 125 | 8.0 | 11.0 | 0.00 | 0.00 | 0.00 | 26 | 1011.5 |
| 20260504035405 | 63 | 133 | 8.0 | 11.0 | 0.00 | 0.00 | 0.00 | 26 | 1011.5 |
| 20260504034902 | 63 | 127 | 8.0 | 11.0 | 0.00 | 0.00 | 0.00 | 26 | 1011.4 |
| 20260504034359 | 63 | 123 | 6.0 | 9.0 | 0.00 | 0.00 | 0.00 | 26 | 1011.2 |
| 20260504033856 | 63 | 135 | 7.0 | 9.0 | 0.00 | 0.00 | 0.00 | 25 | 1011.4 |
| 20260504033354 | 63 | 128 | 11.0 | 12.0 | 0.00 | 0.00 | 0.00 | 24 | 1011.2 |
| 20260504032850 | 63 | 153 | 4.0 | 9.0 | 0.00 | 0.00 | 0.00 | 26 | 1011.5 |
| 20260504032347 | 64 | 131 | 7.0 | 8.0 | 0.00 | 0.00 | 0.00 | 26 | 1011.2 |
| 20260504031844 | 64 | 133 | 5.0 | 8.0 | 0.00 | 0.00 | 0.00 | 25 | 1011.2 |
| 20260504031341 | 64 | 132 | 4.0 | 6.0 | 0.00 | 0.00 | 0.00 | 24 | 1011.1 |
| 20260504030837 | 64 | 127 | 4.0 | 6.0 | 0.00 | 0.00 | 0.00 | 24 | 1011.0 |
| 20260504030335 | 64 | 129 | 8.0 | 8.0 | 0.00 | 0.00 | 0.00 | 23 | 1011.4 |
| 20260504025831 | 64 | 141 | 4.0 | 6.0 | 0.00 | 0.00 | 0.00 | 25 | 1011.0 |
| 20260504025328 | 64 | 158 | 3.0 | 3.0 | 0.00 | 0.00 | 0.00 | 26 | 1011.2 |
| 20260504024825 | 65 | 156 | 3.0 | 4.0 | 0.00 | 0.00 | 0.00 | 25 | 1011.1 |
| 20260504024321 | 65 | 188 | 3.0 | 3.0 | 0.00 | 0.00 | 0.00 | 23 | 1011.2 |
| 20260504023818 | 65 | 167 | 3.0 | 5.0 | 0.00 | 0.00 | 0.00 | 23 | 1011.0 |
| 20260504023315 | 66 | 178 | 1.0 | 2.0 | 0.00 | 0.00 | 0.00 | 23 | 1011.0 |
| 20260504022811 | 67 | 208 | 1.0 | 2.0 | 0.00 | 0.00 | 0.00 | 21 | 1011.1 |
| 20260504022308 | 67 | 91 | 2.0 | 4.0 | 0.00 | 0.00 | 0.00 | 21 | 1011.1 |
| 20260504021804 | 67 | 83 | 4.0 | 5.0 | 0.00 | 0.00 | 0.00 | 20 | 1011.2 |
| 20260504021302 | 68 | 122 | 3.0 | 5.0 | 0.00 | 0.00 | 0.00 | 20 | 1011.2 |
| 20260504020758 | 68 | 42 | 4.0 | 7.0 | 0.00 | 0.00 | 0.00 | 20 | 1011.1 |
| 20260504020255 | 68 | 71 | 3.0 | 6.0 | 0.00 | 0.00 | 0.00 | 20 | 1010.9 |
| 20260504015751 | 68 | 81 | 5.0 | 5.0 | 0.00 | 0.00 | 0.00 | 20 | 1011.0 |
| 20260504015248 | 68 | 62 | 5.0 | 8.0 | 0.00 | 0.00 | 0.00 | 20 | 1011.0 |
| 20260504014743 | 69 | 82 | 4.0 | 6.0 | 0.00 | 0.00 | 0.00 | 20 | 1011.2 |
| 20260504014240 | 69 | 79 | 3.0 | 5.0 | 0.00 | 0.00 | 0.00 | 20 | 1011.2 |
| 20260504013738 | 69 | 77 | 2.0 | 4.0 | 0.00 | 0.00 | 0.00 | 21 | 1011.2 |
| 20260504013235 | 69 | 32 | 3.0 | 7.0 | 0.00 | 0.00 | 0.00 | 20 | 1011.4 |
| 20260504012732 | 69 | 68 | 2.0 | 6.0 | 0.00 | 0.00 | 0.00 | 21 | 1011.5 |
| 20260504012230 | 70 | 46 | 3.0 | 4.0 | 0.00 | 0.00 | 0.00 | 19 | 1011.2 |
| 20260504011726 | 70 | 65 | 2.0 | 3.0 | 0.00 | 0.00 | 0.00 | 19 | 1011.5 |
| 20260504011223 | 70 | 46 | 6.0 | 6.0 | 0.00 | 0.00 | 0.00 | 19 | 1011.6 |
| 20260504010719 | 71 | 16 | 4.0 | 4.0 | 0.00 | 0.00 | 0.00 | 19 | 1011.5 |
| 20260504010215 | 71 | 300 | 2.0 | 5.0 | 0.00 | 0.00 | 0.00 | 18 | 1011.5 |
| 20260504005711 | 71 | 304 | 4.0 | 9.0 | 0.00 | 0.00 | 0.00 | 17 | 1011.6 |
| 20260504005209 | 71 | 282 | 6.0 | 12.0 | 0.00 | 0.00 | 0.00 | 17 | 1011.5 |
| 20260504004707 | 71 | 324 | 6.0 | 11.0 | 0.00 | 0.00 | 0.00 | 18 | 1011.8 |
| 20260504004203 | 72 | 318 | 9.0 | 17.0 | 0.00 | 0.00 | 0.00 | 17 | 1011.7 |
| 20260504003700 | 73 | 327 | 3.0 | 12.0 | 0.00 | 0.00 | 0.00 | 16 | 1011.5 |
| 20260504003157 | 73 | 283 | 4.0 | 6.0 | 0.00 | 0.00 | 0.00 | 18 | 1011.6 |
| 20260504002653 | 73 | 291 | 5.0 | 5.0 | 0.00 | 0.00 | 0.00 | 18 | 1011.5 |
| 20260504002151 | 74 | 37 | 0.0 | 3.0 | 0.00 | 0.00 | 0.00 | 16 | 1011.6 |
| 20260504001649 | 74 | 320 | 2.0 | 6.0 | 0.00 | 0.00 | 0.00 | 16 | 1011.7 |
| 20260504001144 | 74 | 290 | 5.0 | 10.0 | 0.00 | 0.00 | 0.00 | 16 | 1011.7 |
| 20260504000642 | 75 | 272 | 6.0 | 8.0 | 0.00 | 0.00 | 0.00 | 19 | 1011.9 |
| 20260504000139 | 74 | 237 | 2.0 | 4.0 | 0.00 | 0.00 | 0.00 | 18 | 1011.6 |
| 20260503235637 | 74 | 225 | 3.0 | 4.0 | 0.00 | 0.00 | 0.00 | 17 | 1011.6 |
| 20260503235133 | 74 | 14 | 1.0 | 2.0 | 0.00 | 0.00 | 0.00 | 15 | 1011.8 |
| 20260503234632 | 74 | 260 | 2.0 | 2.0 | 0.00 | 0.00 | 0.00 | 16 | 1011.8 |
| 20260503234130 | 74 | 282 | 1.0 | 2.0 | 0.00 | 0.00 | 0.00 | 19 | 1011.7 |
| 20260503233626 | 74 | 307 | 0.0 | 4.0 | 0.00 | 0.00 | 0.00 | 16 | 1011.9 |
| 20260503233122 | 74 | 219 | 0.0 | 2.0 | 0.00 | 0.00 | 0.00 | 18 | 1011.6 |
| 20260503232619 | 74 | 169 | 2.0 | 4.0 | 0.00 | 0.00 | 0.00 | 16 | 1011.9 |
| 20260503232116 | 74 | 298 | 0.0 | 3.0 | 0.00 | 0.00 | 0.00 | 16 | 1012.2 |
| 20260503231614 | 74 | 295 | 0.0 | 5.0 | 0.00 | 0.00 | 0.00 | 14 | 1012.2 |
| 20260503231110 | 74 | 144 | 3.0 | 5.0 | 0.00 | 0.00 | 0.00 | 15 | 1012.0 |
| 20260503230608 | 74 | 147 | 3.0 | 7.0 | 0.00 | 0.00 | 0.00 | 15 | 1012.0 |
| 20260503230104 | 74 | 99 | 6.0 | 9.0 | 0.00 | 0.00 | 0.00 | 16 | 1012.0 |
| 20260503225602 | 74 | 160 | 3.0 | 4.0 | 0.00 | 0.00 | 0.00 | 16 | 1012.4 |
| 20260503225056 | 74 | 78 | 2.0 | 4.0 | 0.00 | 0.00 | 0.00 | 17 | 1012.3 |
| 20260503224554 | 74 | 353 | 0.0 | 5.0 | 0.00 | 0.00 | 0.00 | 17 | 1012.3 |
| 20260503224052 | 74 | 206 | 1.0 | 4.0 | 0.00 | 0.00 | 0.00 | 17 | 1012.4 |
| 20260503223550 | 74 | 180 | 4.0 | 5.0 | 0.00 | 0.00 | 0.00 | 16 | 1012.2 |
| 20260503223045 | 74 | 182 | 2.0 | 9.0 | 0.00 | 0.00 | 0.00 | 16 | 1012.6 |
| 20260503222543 | 74 | 38 | 1.0 | 10.0 | 0.00 | 0.00 | 0.00 | 15 | 1012.4 |
| 20260503222041 | 74 | 118 | 0.0 | 9.0 | 0.00 | 0.00 | 0.00 | 16 | 1012.5 |
| 20260503221539 | 75 | 143 | 6.0 | 11.0 | 0.00 | 0.00 | 0.00 | 16 | 1012.6 |
| 20260503221036 | 75 | 158 | 9.0 | 13.0 | 0.00 | 0.00 | 0.00 | 16 | 1012.9 |
| 20260503220532 | 75 | 278 | 2.0 | 4.0 | 0.00 | 0.00 | 0.00 | 18 | 1012.7 |
| 20260503220029 | 75 | 118 | 4.0 | 8.0 | 0.00 | 0.00 | 0.00 | 17 | 1013.0 |
| 20260503215526 | 74 | 96 | 6.0 | 10.0 | 0.00 | 0.00 | 0.00 | 15 | 1013.3 |
| 20260503215023 | 74 | 107 | 6.0 | 12.0 | 0.00 | 0.00 | 0.00 | 15 | 1013.2 |
| 20260503214522 | 75 | 117 | 5.0 | 16.0 | 0.00 | 0.00 | 0.00 | 15 | 1013.4 |
| 20260503214018 | 75 | 174 | 6.0 | 17.0 | 0.00 | 0.00 | 0.00 | 15 | 1013.8 |
| 20260503213516 | 76 | 80 | 3.0 | 9.0 | 0.00 | 0.00 | 0.00 | 16 | 1013.8 |
| 20260503213013 | 76 | 78 | 8.0 | 12.0 | 0.00 | 0.00 | 0.00 | 14 | 1013.6 |
| 20260503212510 | 77 | 158 | 12.0 | 13.0 | 0.00 | 0.00 | 0.00 | 17 | 1013.8 |
| 20260503212008 | 77 | 105 | 5.0 | 15.0 | 0.00 | 0.00 | 0.00 | 15 | 1013.6 |
| 20260503211504 | 77 | 117 | 4.0 | 17.0 | 0.00 | 0.00 | 0.00 | 13 | 1013.8 |
| 20260503211000 | 76 | 151 | 4.0 | 9.0 | 0.00 | 0.00 | 0.00 | 15 | 1014.0 |
| 20260503210457 | 76 | 117 | 7.0 | 15.0 | 0.00 | 0.00 | 0.00 | 14 | 1014.2 |
| 20260503205957 | 75 | 131 | 3.0 | 11.0 | 0.00 | 0.00 | 0.00 | 16 | 1014.1 |
| 20260503205454 | 75 | 116 | 9.0 | 18.0 | 0.00 | 0.00 | 0.00 | 15 | 1014.4 |
| 20260503204950 | 75 | 176 | 3.0 | 19.0 | 0.00 | 0.00 | 0.00 | 17 | 1014.5 |
| 20260503204448 | 76 | 137 | 6.0 | 12.0 | 0.00 | 0.00 | 0.00 | 16 | 1014.2 |
| 20260503203944 | 76 | 144 | 7.0 | 16.0 | 0.00 | 0.00 | 0.00 | 16 | 1014.6 |
| 20260503203442 | 76 | 96 | 6.0 | 11.0 | 0.00 | 0.00 | 0.00 | 17 | 1014.6 |
| 20260503202939 | 75 | 160 | 2.0 | 12.0 | 0.00 | 0.00 | 0.00 | 16 | 1014.6 |
| 20260503202437 | 75 | 119 | 8.0 | 12.0 | 0.00 | 0.00 | 0.00 | 16 | 1014.8 |
| 20260503201935 | 75 | 126 | 12.0 | 18.0 | 0.00 | 0.00 | 0.00 | 18 | 1014.8 |
| 20260503201432 | 76 | 70 | 2.0 | 6.0 | 0.00 | 0.00 | 0.00 | 17 | 1015.2 |
| 20260503200930 | 76 | 170 | 7.0 | 18.0 | 0.00 | 0.00 | 0.00 | 17 | 1015.1 |
| 20260503200426 | 76 | 129 | 9.0 | 11.0 | 0.00 | 0.00 | 0.00 | 16 | 1015.1 |
| 20260503195922 | 75 | 108 | 10.0 | 12.0 | 0.00 | 0.00 | 0.00 | 17 | 1015.2 |
| 20260503195420 | 75 | 120 | 4.0 | 14.0 | 0.00 | 0.00 | 0.00 | 17 | 1015.3 |
| 20260503194916 | 76 | 177 | 8.0 | 18.0 | 0.00 | 0.00 | 0.00 | 17 | 1015.4 |
| 20260503194413 | 76 | 157 | 9.0 | 14.0 | 0.00 | 0.00 | 0.00 | 18 | 1015.3 |
| 20260503193909 | 76 | 135 | 5.0 | 11.0 | 0.00 | 0.00 | 0.00 | 18 | 1015.5 |
| 20260503193404 | 75 | 101 | 10.0 | 11.0 | 0.00 | 0.00 | 0.00 | 18 | 1015.6 |
| 20260503192900 | 75 | 162 | 8.0 | 12.0 | 0.00 | 0.00 | 0.00 | 17 | 1015.5 |
| 20260503192356 | 75 | 116 | 6.0 | 15.0 | 0.00 | 0.00 | 0.00 | 17 | 1015.7 |
| 20260503191853 | 75 | 105 | 7.0 | 15.0 | 0.00 | 0.00 | 0.00 | 17 | 1015.9 |
| 20260503191350 | 74 | 116 | 12.0 | 17.0 | 0.00 | 0.00 | 0.00 | 21 | 1015.6 |
| 20260503190846 | 74 | 181 | 9.0 | 16.0 | 0.00 | 0.00 | 0.00 | 20 | 1016.0 |
| 20260503190344 | 73 | 134 | 6.0 | 18.0 | 0.00 | 0.00 | 0.00 | 19 | 1016.2 |
| 20260503185841 | 73 | 125 | 10.0 | 15.0 | 0.00 | 0.00 | 0.00 | 20 | 1016.2 |
| 20260503185337 | 73 | 112 | 5.0 | 9.0 | 0.00 | 0.00 | 0.00 | 21 | 1016.1 |
| 20260503184836 | 72 | 101 | 10.0 | 17.0 | 0.00 | 0.00 | 0.00 | 20 | 1016.2 |
| 20260503184333 | 71 | 133 | 7.0 | 10.0 | 0.00 | 0.00 | 0.00 | 19 | 1016.4 |
| 20260503183829 | 71 | 137 | 6.0 | 19.0 | 0.00 | 0.00 | 0.00 | 19 | 1016.2 |
| 20260503183326 | 70 | 146 | 4.0 | 14.0 | 0.00 | 0.00 | 0.00 | 21 | 1016.4 |
| 20260503182823 | 70 | 133 | 10.0 | 12.0 | 0.00 | 0.00 | 0.00 | 21 | 1016.4 |
| 20260503182323 | 71 | 161 | 7.0 | 14.0 | 0.00 | 0.00 | 0.00 | 20 | 1016.4 |
| 20260503181819 | 71 | 220 | 3.0 | 11.0 | 0.00 | 0.00 | 0.00 | 23 | 1016.6 |
| 20260503181316 | 72 | 142 | 15.0 | 21.0 | 0.00 | 0.00 | 0.00 | 19 | 1016.6 |
| 20260503180813 | 73 | 189 | 4.0 | 11.0 | 0.00 | 0.00 | 0.00 | 22 | 1016.7 |
| 20260503180311 | 73 | 161 | 11.0 | 16.0 | 0.00 | 0.00 | 0.00 | 19 | 1016.8 |
| 20260503175807 | 74 | 166 | 13.0 | 13.0 | 0.00 | 0.00 | 0.00 | 20 | 1016.8 |
| 20260503175305 | 73 | 149 | 14.0 | 16.0 | 0.00 | 0.00 | 0.00 | 22 | 1016.7 |
| 20260503174800 | 73 | 122 | 7.0 | 17.0 | 0.00 | 0.00 | 0.00 | 20 | 1016.8 |
| 20260503174259 | 73 | 158 | 11.0 | 22.0 | 0.00 | 0.00 | 0.00 | 19 | 1016.9 |
| 20260503173754 | 73 | 123 | 6.0 | 13.0 | 0.00 | 0.00 | 0.00 | 20 | 1016.8 |
| 20260503173250 | 73 | 98 | 9.0 | 17.0 | 0.00 | 0.00 | 0.00 | 21 | 1016.8 |
| 20260503172747 | 72 | 149 | 5.0 | 13.0 | 0.00 | 0.00 | 0.00 | 22 | 1017.1 |
| 20260503172244 | 71 | 138 | 8.0 | 20.0 | 0.00 | 0.00 | 0.00 | 22 | 1017.0 |
| 20260503171740 | 72 | 130 | 9.0 | 16.0 | 0.00 | 0.00 | 0.00 | 21 | 1017.1 |
| 20260503171238 | 72 | 142 | 14.0 | 14.0 | 0.00 | 0.00 | 0.00 | 23 | 1017.3 |
| 20260503170735 | 71 | 173 | 6.0 | 17.0 | 0.00 | 0.00 | 0.00 | 22 | 1017.0 |
| 20260503170231 | 71 | 146 | 11.0 | 19.0 | 0.00 | 0.00 | 0.00 | 21 | 1017.0 |
| 20260503160153 | 69 | 149 | 11.0 | 18.0 | 0.00 | 0.00 | 0.00 | 21 | 1017.1 |
| 20260503150623 | 62 | 146 | 14.0 | 18.0 | 0.00 | 0.00 | 0.00 | 25 | 1017.5 |
| 20260503150120 | 62 | 151 | 11.0 | 19.0 | 0.00 | 0.00 | 0.00 | 24 | 1017.6 |
| 20260503131013 | 53 | 125 | 4.0 | 4.0 | 0.00 | 0.00 | 0.00 | 34 | 1017.0 |
| 20260503130511 | 55 | 126 | 2.0 | 3.0 | 0.00 | 0.00 | 0.00 | 31 | 1016.7 |
| 20260503110407 | 56 | 161 | 4.0 | 9.0 | 0.00 | 0.00 | 0.00 | 26 | 1017.5 |
| 20260503090257 | 59 | 143 | 9.0 | 13.0 | 0.00 | 0.00 | 0.00 | 23 | 1017.3 |
| 20260503081231 | 56 | 128 | 8.0 | 12.0 | 0.00 | 0.00 | 0.00 | 26 | 1017.7 |
| 20260503080726 | 57 | 135 | 11.0 | 13.0 | 0.00 | 0.00 | 0.00 | 26 | 1017.8 |
| 20260503080224 | 57 | 127 | 6.0 | 9.0 | 0.00 | 0.00 | 0.00 | 25 | 1017.8 |
| 20260503072700 | 55 | 117 | 7.0 | 11.0 | 0.00 | 0.00 | 0.00 | 28 | 1017.9 |
| 20260503072157 | 55 | 133 | 6.0 | 8.0 | 0.00 | 0.00 | 0.00 | 31 | 1017.9 |
| 20260503071654 | 55 | 112 | 6.0 | 8.0 | 0.00 | 0.00 | 0.00 | 30 | 1017.7 |
| 20260503071150 | 55 | 111 | 5.0 | 8.0 | 0.00 | 0.00 | 0.00 | 30 | 1017.7 |
| 20260503070647 | 55 | 116 | 8.0 | 10.0 | 0.00 | 0.00 | 0.00 | 30 | 1017.9 |
| 20260503070146 | 56 | 131 | 9.0 | 12.0 | 0.00 | 0.00 | 0.00 | 30 | 1017.8 |
| 20260503060110 | 56 | 127 | 11.0 | 14.0 | 0.00 | 0.00 | 0.00 | 31 | 1017.8 |
| 20260503055101 | 57 | 150 | 6.0 | 10.0 | 0.00 | 0.00 | 0.00 | 31 | 1017.8 |
| 20260503054557 | 56 | 129 | 8.0 | 10.0 | 0.00 | 0.00 | 0.00 | 31 | 1017.8 |